FW9575 Weather Reports


time (UTC)temp
C
wind
direction
speed
KPH
gust
KPH
rain 1hr
cm
rain 24hr
cm
rain mn
cm
humidity
%
barometer
mb
20260507124854 8 306 3.2 20.9 0.00 0.00 0.00 77 1010.9
20260507124350 8 292 3.2 9.7 0.00 0.00 0.00 78 1011.1
20260507123849 8 200 3.2 12.9 0.00 0.00 0.00 78 1010.8
20260507123345 8 274 3.2 8.0 0.00 0.00 0.00 78 1010.7
20260507122842 7 259 3.2 11.3 0.00 0.00 0.00 79 1011.1
20260507122337 7 269 6.4 14.5 0.00 0.00 0.00 80 1010.8
20260507121834 7 314 3.2 9.7 0.00 0.00 0.00 81 1011.0
20260507121329 7 293 4.8 11.3 0.00 0.00 0.00 81 1011.0
20260507120826 7 69 3.2 8.0 0.00 0.00 0.00 82 1011.1
20260507120322 6 292 4.8 11.3 0.00 0.00 0.00 83 1010.9
20260507115819 6 278 3.2 8.0 0.00 0.00 0.00 83 1010.9
20260507115315 6 309 4.8 9.7 0.00 0.00 0.00 84 1011.1
20260507114810 6 336 0.0 6.4 0.00 0.00 0.00 84 1011.2
20260507114308 6 336 0.0 8.0 0.00 0.00 0.00 83 1011.1
20260507113805 6 285 0.0 6.4 0.00 0.00 0.00 83 1011.2
20260507113302 6 242 1.6 9.7 0.00 0.00 0.00 83 1011.0
20260507112800 6 311 4.8 19.3 0.00 0.00 0.00 83 1011.1
20260507112256 6 329 3.2 6.4 0.00 0.00 0.00 82 1011.3
20260507111755 6 286 0.0 8.0 0.00 0.00 0.00 82 1010.9
20260507111250 6 293 3.2 9.7 0.00 0.00 0.00 82 1010.9
20260507110747 6 259 1.6 11.3 0.00 0.00 0.00 82 1011.1
20260507110243 6 281 1.6 4.8 0.00 0.00 0.00 82 1010.9
20260507105740 6 292 3.2 4.8 0.00 0.00 0.00 81 1010.9
20260507105236 6 9 1.6 8.0 0.00 0.00 0.00 81 1011.1
20260507104734 6 321 1.6 4.8 0.00 0.00 0.00 81 1010.8
20260507104230 7 256 1.6 6.4 0.00 0.00 0.00 80 1011.1
20260507103726 7 343 0.0 4.8 0.00 0.00 0.00 80 1011.0
20260507103223 7 321 0.0 4.8 0.00 0.00 0.00 79 1011.1
20260507102719 7 222 1.6 4.8 0.00 0.00 0.00 78 1011.0
20260507102216 7 19 1.6 8.0 0.00 0.00 0.00 78 1011.0
20260507101712 7 310 0.0 9.7 0.00 0.00 0.00 77 1011.2
20260507101207 7 328 1.6 4.8 0.00 0.00 0.00 76 1011.1
20260507100705 8 294 3.2 12.9 0.00 0.00 0.00 76 1011.2
20260507100203 8 296 8.0 9.7 0.00 0.00 0.00 76 1011.1
20260507095701 8 297 8.0 16.1 0.00 0.00 0.00 76 1011.1
20260507095157 8 305 6.4 12.9 0.00 0.00 0.00 76 1011.4
20260507094654 8 259 9.7 12.9 0.00 0.00 0.00 76 1011.3
20260507094150 8 297 8.0 9.7 0.00 0.00 0.00 76 1011.2
20260507093648 8 297 4.8 9.7 0.00 0.00 0.00 76 1011.3
20260507093146 8 291 4.8 8.0 0.00 0.00 0.00 76 1011.3
20260507092643 8 246 0.0 12.9 0.00 0.00 0.00 75 1011.4
20260507092139 8 295 3.2 11.3 0.00 0.00 0.00 75 1011.3
20260507091636 8 309 6.4 9.7 0.00 0.00 0.00 75 1011.5
20260507091132 8 241 1.6 11.3 0.00 0.00 0.00 75 1011.8
20260507090628 8 223 1.6 11.3 0.00 0.00 0.00 75 1011.8
20260507090126 8 300 1.6 11.3 0.00 0.00 0.00 75 1011.5
20260507085622 8 185 0.0 11.3 0.00 0.00 0.00 75 1011.8
20260507085119 8 275 4.8 6.4 0.00 0.00 0.00 75 1011.6
20260507084616 8 167 0.0 8.0 0.00 0.00 0.00 74 1011.6
20260507084112 8 271 4.8 12.9 0.00 0.00 0.00 74 1012.0
20260507083609 8 260 4.8 9.7 0.00 0.00 0.00 74 1012.1
20260507083106 8 261 8.0 16.1 0.00 0.00 0.00 74 1012.0
20260507082602 8 281 3.2 8.0 0.00 0.00 0.00 73 1011.9
20260507082058 8 306 0.0 9.7 0.00 0.00 0.00 73 1012.0
20260507081554 8 288 3.2 12.9 0.00 0.00 0.00 73 1012.1
20260507081052 8 253 3.2 9.7 0.00 0.00 0.00 72 1012.2
20260507080548 8 284 6.4 12.9 0.00 0.00 0.00 72 1012.2
20260507080044 9 353 1.6 11.3 0.00 0.00 0.00 71 1012.4
20260507075539 9 258 1.6 9.7 0.00 0.00 0.00 71 1012.4
20260507075036 9 325 3.2 8.0 0.00 0.00 0.00 71 1012.4
20260507074533 9 268 9.7 16.1 0.00 0.00 0.00 70 1012.5
20260507074032 9 290 6.4 11.3 0.00 0.00 0.00 70 1012.6
20260507073527 9 272 8.0 11.3 0.00 0.00 0.00 69 1012.7
20260507073024 9 311 3.2 11.3 0.00 0.00 0.00 69 1012.6
20260507072521 9 215 0.0 11.3 0.00 0.00 0.00 68 1012.7
20260507072019 9 268 4.8 8.0 0.00 0.00 0.00 68 1012.8
20260507071516 9 289 4.8 9.7 0.00 0.00 0.00 67 1012.7
20260507071012 9 297 6.4 11.3 0.00 0.00 0.00 67 1012.7
20260507070510 9 256 4.8 8.0 0.00 0.00 0.00 67 1012.9
20260507070010 9 264 4.8 16.1 0.00 0.00 0.00 66 1013.1
20260507065502 9 285 6.4 11.3 0.00 0.00 0.00 66 1013.1
20260507065000 9 265 4.8 11.3 0.00 0.00 0.00 65 1013.2
20260507064458 9 261 3.2 11.3 0.00 0.00 0.00 64 1013.3
20260507063956 9 276 0.0 12.9 0.00 0.00 0.00 64 1013.1
20260507063452 9 298 4.8 12.9 0.00 0.00 0.00 63 1013.2
20260507062949 10 358 0.0 9.7 0.00 0.00 0.00 62 1013.3
20260507062447 10 286 6.4 11.3 0.00 0.00 0.00 61 1013.3
20260507061944 10 266 3.2 17.7 0.00 0.00 0.00 60 1013.5
20260507061442 10 290 8.0 14.5 0.00 0.00 0.00 59 1013.4
20260507060940 10 270 4.8 9.7 0.00 0.00 0.00 58 1013.5
20260507060437 10 285 0.0 11.3 0.00 0.00 0.00 58 1013.5
20260507055933 10 283 4.8 12.9 0.00 0.00 0.00 57 1013.7
20260507055428 10 307 6.4 11.3 0.00 0.00 0.00 56 1013.4
20260507054926 10 278 3.2 14.5 0.00 0.00 0.00 55 1013.6
20260507054422 10 281 8.0 9.7 0.00 0.00 0.00 55 1013.5
20260507053919 10 281 8.0 12.9 0.00 0.00 0.00 54 1013.4
20260507053416 10 285 3.2 11.3 0.00 0.00 0.00 53 1013.4
20260507052915 10 315 4.8 12.9 0.00 0.00 0.00 53 1013.3
20260507052412 10 276 3.2 8.0 0.00 0.00 0.00 52 1013.6
20260507051909 10 296 3.2 14.5 0.00 0.00 0.00 51 1013.6
20260507051407 10 283 3.2 9.7 0.00 0.00 0.00 51 1013.5
20260507050903 10 299 3.2 6.4 0.00 0.00 0.00 50 1013.6
20260507050400 10 4 0.0 4.8 0.00 0.00 0.00 49 1013.4
20260507045857 10 279 3.2 8.0 0.00 0.00 0.00 48 1013.4
20260507045353 11 289 6.4 11.3 0.00 0.00 0.00 47 1013.6
20260507044851 11 266 0.0 17.7 0.00 0.00 0.00 46 1013.7
20260507044347 11 282 4.8 14.5 0.00 0.00 0.00 44 1013.6
20260507043843 11 277 3.2 12.9 0.00 0.00 0.00 44 1013.8
20260507043340 11 298 4.8 8.0 0.00 0.00 0.00 42 1013.7
20260507042836 11 278 9.7 9.7 0.00 0.00 0.00 41 1013.8
20260507042332 11 353 3.2 9.7 0.00 0.00 0.00 41 1014.0
20260507041829 11 310 3.2 6.4 0.00 0.00 0.00 40 1013.7
20260507041325 11 293 1.6 1.6 0.00 0.00 0.00 40 1013.9
20260507040823 11 314 4.8 8.0 0.00 0.00 0.00 40 1013.7
20260507040319 11 311 0.0 4.8 0.00 0.00 0.00 40 1013.8
20260507035815 11 344 0.0 3.2 0.00 0.00 0.00 39 1014.2
20260507035310 11 296 1.6 3.2 0.00 0.00 0.00 39 1013.9
20260507034808 11 3 0.0 3.2 0.00 0.00 0.00 39 1014.0
20260507034305 11 359 0.0 8.0 0.00 0.00 0.00 39 1013.8
20260507033803 11 303 0.0 3.2 0.00 0.00 0.00 39 1014.0
20260507033301 11 89 0.0 1.6 0.00 0.00 0.00 39 1014.0
20260507032757 11 101 0.0 4.8 0.00 0.00 0.00 39 1014.1
20260507032253 11 12 0.0 3.2 0.00 0.00 0.00 39 1013.9
20260507031750 11 356 0.0 4.8 0.00 0.00 0.00 39 1013.9
20260507031247 11 79 0.0 3.2 0.00 0.00 0.00 39 1014.2
20260507030744 11 351 0.0 3.2 0.00 0.00 0.00 40 1014.1
20260507030241 11 15 1.6 3.2 0.00 0.00 0.00 39 1014.2
20260507025738 11 358 1.6 3.2 0.00 0.00 0.00 39 1013.9
20260507025235 11 353 0.0 3.2 0.00 0.00 0.00 39 1013.8
20260507024733 11 8 1.6 3.2 0.00 0.00 0.00 39 1014.1
20260507024230 11 22 1.6 3.2 0.00 0.00 0.00 39 1014.0
20260507023726 11 2 3.2 3.2 0.00 0.00 0.00 38 1014.0
20260507023223 11 27 0.0 3.2 0.00 0.00 0.00 38 1013.8
20260507022720 11 344 0.0 3.2 0.00 0.00 0.00 37 1013.9
20260507022216 11 12 1.6 3.2 0.00 0.00 0.00 37 1013.9
20260507021712 12 343 0.0 3.2 0.00 0.00 0.00 36 1013.8
20260507021208 12 322 0.0 3.2 0.00 0.00 0.00 36 1013.6
20260507020707 12 340 0.0 3.2 0.00 0.00 0.00 37 1013.8
20260507020202 12 8 0.0 1.6 0.00 0.00 0.00 35 1013.5
20260507015701 12 0 0.0 3.2 0.00 0.00 0.00 35 1013.6
20260507015158 12 6 0.0 1.6 0.00 0.00 0.00 35 1013.6
20260507014654 13 10 3.2 3.2 0.00 0.00 0.00 34 1013.5
20260507014150 13 6 0.0 4.8 0.00 0.00 0.00 32 1013.4
20260507013647 13 354 0.0 4.8 0.00 0.00 0.00 31 1013.6
20260507013144 13 303 4.8 4.8 0.00 0.00 0.00 31 1013.5
20260507012642 14 282 3.2 6.4 0.00 0.00 0.00 30 1013.6
20260507012137 14 298 6.4 6.4 0.00 0.00 0.00 30 1013.8
20260507011635 14 322 3.2 6.4 0.00 0.00 0.00 30 1013.6
20260507011131 15 289 3.2 8.0 0.00 0.00 0.00 29 1013.7
20260507010626 15 305 4.8 6.4 0.00 0.00 0.00 29 1013.7
20260507010122 15 293 3.2 8.0 0.00 0.00 0.00 29 1013.6
20260507005620 15 302 6.4 11.3 0.00 0.00 0.00 28 1013.6
20260507005116 15 302 3.2 11.3 0.00 0.00 0.00 28 1013.7
20260507004613 15 293 6.4 9.7 0.00 0.00 0.00 28 1013.7
20260507004110 15 291 14.5 14.5 0.00 0.00 0.00 28 1013.7
20260507003606 15 288 11.3 16.1 0.00 0.00 0.00 28 1013.5
20260507003101 15 343 3.2 8.0 0.00 0.00 0.00 28 1013.6
20260507002558 15 332 3.2 9.7 0.00 0.00 0.00 27 1013.7
20260507002054 15 275 4.8 14.5 0.00 0.00 0.00 27 1013.8
20260507001551 15 298 8.0 14.5 0.00 0.00 0.00 27 1013.6
20260507001048 15 331 3.2 8.0 0.00 0.00 0.00 28 1013.9
20260507000544 15 298 1.6 14.5 0.00 0.00 0.00 27 1013.9
20260507000040 16 289 6.4 14.5 0.00 0.00 0.00 27 1013.8
20260506235538 16 358 0.0 9.7 0.00 0.00 0.00 27 1013.8
20260506235033 16 347 4.8 9.7 0.00 0.00 0.00 26 1013.8
20260506234531 16 297 8.0 17.7 0.00 0.00 0.00 25 1014.2
20260506234028 16 336 3.2 8.0 0.00 0.00 0.00 26 1013.9
20260506233524 16 284 16.1 16.1 0.00 0.00 0.00 26 1014.1
20260506233021 16 285 9.7 12.9 0.00 0.00 0.00 27 1014.2
20260506232517 16 308 6.4 16.1 0.00 0.00 0.00 26 1014.1
20260506232013 16 275 9.7 20.9 0.00 0.00 0.00 25 1014.2
20260506231511 16 285 11.3 25.7 0.00 0.00 0.00 25 1014.4
20260506231009 17 307 14.5 17.7 0.00 0.00 0.00 26 1014.3
20260506230504 17 314 6.4 14.5 0.00 0.00 0.00 25 1014.1
20260506230002 16 294 4.8 9.7 0.00 0.00 0.00 27 1014.1
20260506225459 15 286 4.8 14.5 0.00 0.00 0.00 28 1014.1
20260506224955 16 284 9.7 14.5 0.00 0.00 0.00 26 1014.0
20260506224452 15 351 4.8 11.3 0.00 0.00 0.00 27 1014.2
20260506223948 15 318 3.2 12.9 0.00 0.00 0.00 28 1014.2
20260506223444 15 293 1.6 22.5 0.00 0.00 0.00 27 1014.2
20260506222942 16 343 8.0 17.7 0.00 0.00 0.00 26 1014.7
20260506222438 15 265 8.0 19.3 0.00 0.00 0.00 27 1014.4
20260506221935 16 293 9.7 17.7 0.00 0.00 0.00 27 1014.6
20260506221432 16 294 9.7 12.9 0.00 0.00 0.00 27 1014.3
20260506220930 16 279 12.9 19.3 0.00 0.00 0.00 25 1014.6
20260506220425 17 309 3.2 11.3 0.00 0.00 0.00 26 1014.8
20260506215922 16 316 3.2 12.9 0.00 0.00 0.00 25 1014.9
20260506215418 15 355 4.8 14.5 0.00 0.00 0.00 27 1015.0
20260506214914 16 349 3.2 17.7 0.00 0.00 0.00 26 1014.6
20260506214411 16 30 4.8 11.3 0.00 0.00 0.00 26 1014.8
20260506213909 16 322 3.2 12.9 0.00 0.00 0.00 26 1014.9
20260506213406 15 330 6.4 14.5 0.00 0.00 0.00 28 1014.9
20260506212904 15 344 6.4 19.3 0.00 0.00 0.00 26 1014.9
20260506212359 16 244 11.3 19.3 0.00 0.00 0.00 26 1015.1
20260506211854 16 241 8.0 22.5 0.00 0.00 0.00 26 1014.9
20260506211350 17 271 6.4 12.9 0.00 0.00 0.00 25 1015.0
20260506210848 15 281 8.0 17.7 0.00 0.00 0.00 27 1015.2
20260506210344 15 293 11.3 11.3 0.00 0.00 0.00 27 1015.2
20260506205842 15 278 14.5 16.1 0.00 0.00 0.00 27 1015.6
20260506205337 15 303 3.2 16.1 0.00 0.00 0.00 28 1015.3
20260506204834 16 313 11.3 29.0 0.00 0.00 0.00 27 1015.6
20260506204332 15 290 4.8 12.9 0.00 0.00 0.00 26 1015.4
20260506203829 16 341 4.8 9.7 0.00 0.00 0.00 28 1015.3
20260506203326 16 311 4.8 8.0 0.00 0.00 0.00 26 1015.6
20260506202823 16 333 1.6 9.7 0.00 0.00 0.00 27 1015.5
20260506202320 16 340 4.8 20.9 0.00 0.00 0.00 28 1016.1
20260506201816 15 290 8.0 19.3 0.00 0.00 0.00 28 1016.0
20260506201314 15 324 3.2 14.5 0.00 0.00 0.00 28 1015.8
20260506200811 15 295 9.7 20.9 0.00 0.00 0.00 27 1015.8
20260506200307 16 308 6.4 20.9 0.00 0.00 0.00 27 1016.0
20260506195803 15 317 6.4 20.9 0.00 0.00 0.00 28 1015.9
20260506195300 16 351 6.4 19.3 0.00 0.00 0.00 27 1015.9
20260506194758 15 326 6.4 9.7 0.00 0.00 0.00 29 1015.9
20260506194254 15 253 8.0 27.4 0.00 0.00 0.00 28 1016.0
20260506193752 15 322 11.3 19.3 0.00 0.00 0.00 28 1016.0
20260506193248 15 315 9.7 12.9 0.00 0.00 0.00 29 1016.3
20260506192744 15 227 1.6 20.9 0.00 0.00 0.00 29 1016.1
20260506192241 15 337 8.0 14.5 0.00 0.00 0.00 28 1015.9
20260506191738 16 333 11.3 19.3 0.00 0.00 0.00 28 1016.2
20260506191234 15 335 9.7 29.0 0.00 0.00 0.00 28 1016.0
20260506190732 15 267 14.5 25.7 0.00 0.00 0.00 28 1016.1
20260506190228 15 301 1.6 8.0 0.00 0.00 0.00 27 1016.1
20260506185725 15 316 4.8 11.3 0.00 0.00 0.00 29 1016.4
20260506185221 15 314 11.3 20.9 0.00 0.00 0.00 28 1016.4
20260506184719 15 315 9.7 19.3 0.00 0.00 0.00 29 1016.2
20260506184216 15 302 4.8 16.1 0.00 0.00 0.00 29 1016.4
20260506183713 15 345 9.7 19.3 0.00 0.00 0.00 28 1016.4
20260506183209 13 273 11.3 19.3 0.00 0.00 0.00 29 1016.5
20260506182706 14 275 14.5 19.3 0.00 0.00 0.00 29 1016.5
20260506182204 15 323 4.8 9.7 0.00 0.00 0.00 29 1016.4
20260506181701 14 301 6.4 16.1 0.00 0.00 0.00 28 1016.5
20260506181158 14 286 4.8 14.5 0.00 0.00 0.00 29 1016.6
20260506180655 15 287 6.4 12.9 0.00 0.00 0.00 30 1016.8
20260506180151 14 284 12.9 14.5 0.00 0.00 0.00 30 1016.8
20260506175648 14 243 9.7 14.5 0.00 0.00 0.00 29 1016.9
20260506175144 15 257 8.0 20.9 0.00 0.00 0.00 29 1017.1
20260506174637 15 304 6.4 11.3 0.00 0.00 0.00 30 1017.0
20260506174134 13 292 4.8 11.3 0.00 0.00 0.00 31 1017.0
20260506173631 13 277 17.7 20.9 0.00 0.00 0.00 30 1017.0
20260506173128 13 339 4.8 14.5 0.00 0.00 0.00 30 1016.9
20260506172625 13 288 8.0 12.9 0.00 0.00 0.00 31 1017.1
20260506172121 13 296 0.0 9.7 0.00 0.00 0.00 31 1017.4
20260506171619 13 0 3.2 14.5 0.00 0.00 0.00 30 1017.4
20260506171116 13 8 3.2 17.7 0.00 0.00 0.00 32 1017.5
20260506170614 12 277 6.4 17.7 0.00 0.00 0.00 31 1017.5
20260506170105 12 306 8.0 14.5 0.00 0.00 0.00 33 1017.5
20260506165604 13 352 3.2 11.3 0.00 0.00 0.00 30 1017.5
20260506165059 12 337 4.8 17.7 0.00 0.00 0.00 30 1017.6
20260506164557 13 343 6.4 17.7 0.00 0.00 0.00 32 1017.9
20260506164054 12 344 6.4 17.7 0.00 0.00 0.00 32 1017.7
20260506163549 12 288 3.2 11.3 0.00 0.00 0.00 34 1017.4
20260506163046 12 336 4.8 12.9 0.00 0.00 0.00 33 1017.7
20260506162542 12 330 6.4 8.0 0.00 0.00 0.00 32 1017.8
20260506162039 12 328 9.7 19.3 0.00 0.00 0.00 32 1017.9
20260506161536 12 319 4.8 16.1 0.00 0.00 0.00 31 1017.7
20260506161028 12 339 9.7 14.5 0.00 0.00 0.00 31 1017.8
20260506160525 12 315 9.7 11.3 0.00 0.00 0.00 35 1017.7
20260506160022 12 297 16.1 19.3 0.00 0.00 0.00 35 1017.6
20260506155520 11 358 6.4 11.3 0.00 0.00 0.00 34 1017.4
20260506153652 11 256 3.2 9.7 0.00 0.00 0.00 38 1017.6
20260506153149 11 250 4.8 12.9 0.00 0.00 0.00 36 1017.6
20260506152646 11 340 3.2 8.0 0.00 0.00 0.00 36 1017.5
20260506152143 11 38 6.4 9.7 0.00 0.00 0.00 35 1017.5
20260506151642 11 316 4.8 6.4 0.00 0.00 0.00 37 1017.6
20260506151138 11 346 3.2 9.7 0.00 0.00 0.00 37 1017.8
20260506150635 10 357 4.8 9.7 0.00 0.00 0.00 38 1017.7
20260506150132 10 342 4.8 8.0 0.00 0.00 0.00 39 1017.8
20260506145629 10 96 3.2 9.7 0.00 0.00 0.00 39 1017.7
20260506145126 10 24 1.6 8.0 0.00 0.00 0.00 38 1017.7
20260506144624 10 320 3.2 6.4 0.00 0.00 0.00 38 1017.6
20260506144120 10 351 0.0 4.8 0.00 0.00 0.00 39 1017.8
20260506143618 10 358 4.8 6.4 0.00 0.00 0.00 40 1017.7
20260506143116 10 355 3.2 4.8 0.00 0.00 0.00 41 1017.8
20260506142614 9 301 3.2 6.4 0.00 0.00 0.00 41 1017.8
20260506142112 9 211 0.0 8.0 0.00 0.00 0.00 40 1017.7
20260506141609 8 328 4.8 6.4 0.00 0.00 0.00 43 1017.8
20260506141107 8 333 4.8 8.0 0.00 0.00 0.00 41 1017.7
20260506140604 9 16 1.6 3.2 0.00 0.00 0.00 42 1017.5
20260506135558 8 12 3.2 4.8 0.00 0.00 0.00 45 1017.4
20260506135054 8 359 4.8 6.4 0.00 0.00 0.00 45 1017.5
20260506134551 8 62 3.2 8.0 0.00 0.00 0.00 44 1017.7
20260506134047 8 5 4.8 4.8 0.00 0.00 0.00 45 1017.5
20260506133544 8 35 6.4 8.0 0.00 0.00 0.00 45 1017.5
20260506133041 7 349 3.2 4.8 0.00 0.00 0.00 47 1017.4
20260506132539 7 323 1.6 8.0 0.00 0.00 0.00 48 1017.5
20260506132036 7 35 3.2 4.8 0.00 0.00 0.00 49 1017.4
20260506131533 7 353 3.2 8.0 0.00 0.00 0.00 49 1017.1
20260506131029 7 0 1.6 4.8 0.00 0.00 0.00 49 1016.9
20260506130526 6 332 4.8 8.0 0.00 0.00 0.00 50 1017.1
20260506130023 6 10 3.2 6.4 0.00 0.00 0.00 50 1016.9
20260506125521 6 350 4.8 6.4 0.00 0.00 0.00 52 1017.1